Dewpoint
72 71 71 71 71 71 71 71 71 71 71 71 71 71 72 72 72 72 72 72 72 74 72 72 73 73 73 74 74 75 75 75 75 75 75 75 75 74 74 75 75 74 74 74 74 74 74 73 73 73 75 72 72 73 72 72 71 73 74 74 73 74 72 70 68 69 69 73 74 73 73 74 73 72 71 71 70 70 72 71 71 70 69 67 67
72 71 71 71 70 71 70 71 71 71 70 70 71 71 71 72 71 72 71 71 72 72 72 72 73 74 73 73 73 74 75 75 74 74 75 75 74 74 74 74 74 74 74 74 74 75 74 73 73 74 74 73 73 72 71 71 70 70 73 74 73 74 73 70 69 68 67 71 72 73 74 74 72 72 71 70 70 72 71 71 70 69 68 67 67
72 72 71 70 70 70 70 70 70 70 70 70 70 70 70 71 71 71 71 71 72 71 71 71 72 73 73 73 73 73 74 74 74 74 74 74 74 74 74 74 74 74 74 74 74 74 73 73 72 74 74 73 73 72 72 71 71 71 71 73 71 72 73 71 70 69 69 70 72 72 72 72 71 70 71 71 72 72 71 70 69 68 69 69 68
71 72 71 71 71 70 70 70 69 70 69 70 70 70 70 71 71 70 70 71 71 72 71 72 72 72 72 72 72 72 73 73 74 74 74 74 74 74 74 73 73 73 73 73 74 73 73 72 72 72 73 72 72 72 72 72 71 72 72 71 71 71 73 73 72 70 70 70 70 71 72 71 71 71 72 72 71 70 70 70 69 68 69 69 69
71 71 71 70 71 70 70 70 69 69 69 69 69 69 69 70 71 70 70 71 71 71 72 72 72 72 72 72 72 73 73 73 73 73 73 74 74 74 74 73 74 74 74 74 76 73 73 72 72 72 72 71 71 71 72 72 71 70 70 71 72 72 75 74 74 73 71 70 70 71 71 71 72 72 72 70 69 68 69 69 69 69 70 70 69
71 71 71 70 70 70 70 70 69 69 69 68 68 69 69 69 69 70 70 70 70 71 71 71 72 72 72 72 72 73 73 73 73 73 72 73 73 73 73 73 73 74 74 74 74 74 74 73 73 72 72 71 71 71 72 71 71 71 70 70 71 72 73 73 73 72 72 71 70 70 70 71 69 69 70 69 69 69 69 69 69 69 71 70 70
71 71 70 70 70 70 70 70 69 68 69 68 67 67 67 68 68 69 69 69 70 70 70 71 73 73 73 73 73 73 73 73 73 73 73 73 72 73 73 73 73 73 73 73 73 72 73 73 73 73 73 72 71 71 71 71 72 71 71 71 71 71 71 71 72 72 72 71 71 71 70 70 69 68 70 70 70 70 68 69 68 69 70 70 71
70 70 70 70 68 71 72 73 71 69 69 69 68 67 66 66 68 69 69 68 68 69 69 70 72 73 73 73 73 73 73 73 73 74 73 73 73 72 73 73 73 73 73 73 73 73 73 72 72 72 72 72 71 71 71 70 71 71 70 71 71 71 71 71 70 70 69 69 68 68 68 68 69 69 70 68 66 66 69 69 68 68 69 70 70
70 70 69 69 68 70 72 73 74 74 74 70 69 67 68 66 66 69 69 69 69 69 69 69 70 72 72 72 72 73 73 73 74 74 74 74 73 73 73 72 72 73 73 73 72 72 72 72 72 71 72 76 77 76 74 74 70 69 70 71 71 71 70 70 69 69 69 69 69 68 67 68 68 68 68 66 65 65 66 70 69 69 70 71 72
70 69 69 69 70 71 72 72 72 72 73 74 73 74 73 72 67 67 69 69 69 70 69 70 70 71 71 72 72 72 73 73 75 74 75 74 74 73 73 73 73 73 73 72 71 71 71 71 72 75 75 76 75 78 79 78 77 72 70 72 72 71 70 70 70 70 69 68 68 67 67 68 69 68 67 66 67 68 69 69 69 70 71 72 71
70 70 69 69 70 71 71 71 71 71 71 72 72 73 74 73 71 70 70 70 70 71 70 69 69 70 70 71 71 72 72 73 74 69 68 70 74 73 72 72 72 72 72 72 71 72 72 72 71 73 76 79 76 78 77 77 78 78 77 75 74 70 70 70 69 69 68 68 68 68 68 68 67 66 67 67 68 68 69 69 70 70 70 69 69
69 70 70 69 70 71 71 71 71 71 71 70 70 70 72 73 72 71 71 71 71 71 69 70 70 70 70 71 71 72 72 74 67 66 65 65 70 73 72 71 71 71 72 72 72 72 71 71 71 70 70 70 71 74 75 77 75 76 76 76 75 75 73 69 67 67 68 68 67 67 66 66 66 68 68 68 68 69 70 70 70 70 70 69 68
70 70 70 70 69 69 70 70 70 70 70 70 70 69 69 70 72 72 71 71 71 70 69 69 69 70 70 69 70 72 71 70 65 65 64 64 65 71 71 71 70 71 72 72 72 71 71 71 71 71 70 72 77 74 73 74 76 75 75 76 76 74 70 69 70 68 66 66 65 66 67 67 67 68 69 69 70 70 69 69 69 70 70 69 69
70 70 70 70 70 70 70 70 70 70 70 70 70 69 68 67 69 71 73 71 70 71 71 71 71 70 69 69 70 71 70 68 64 63 63 63 64 67 68 70 71 70 71 71 71 71 71 71 71 72 73 73 73 74 73 73 74 74 73 72 72 73 75 71 70 70 71 69 68 67 69 69 68 69 71 71 70 70 69 68 68 69 69 70 70
69 69 69 69 69 70 71 71 70 70 71 71 71 70 69 69 70 72 72 71 70 70 70 71 70 71 71 70 70 69 69 63 62 62 62 62 64 69 66 67 69 69 68 69 71 71 71 72 72 73 72 71 72 74 72 72 74 74 73 74 73 73 72 73 73 74 72 72 71 71 71 71 71 71 71 71 71 70 70 69 70 71 72 72 71
68 68 68 69 70 70 70 70 70 70 70 70 70 71 71 70 71 71 71 71 71 71 71 71 71 70 70 70 70 68 65 60 61 61 61 61 65 68 67 66 67 70 70 71 71 71 71 72 72 72 70 68 70 67 71 74 73 72 72 73 73 74 73 73 67 70 71 71 72 72 72 71 70 71 71 70 70 70 71 71 71 70 71 70 70
67 68 69 69 69 69 69 69 69 69 69 69 69 69 69 69 69 70 69 70 70 71 71 72 71 71 70 71 69 68 67 61 58 58 60 60 65 68 68 67 67 69 71 72 72 73 73 72 73 72 69 68 66 61 65 76 72 71 71 71 72 72 72 71 67 68 68 67 66 67 67 66 65 63 62 63 67 68 69 70 70 71 70 70 70
65 66 67 69 69 69 69 69 68 69 68 68 68 69 69 69 69 71 70 70 70 70 71 71 72 72 72 71 70 69 68 63 58 57 57 59 66 70 71 70 69 69 72 72 73 74 75 75 74 70 68 67 63 62 66 73 70 70 70 70 70 70 70 70 70 70 69 69 69 67 67 67 69 69 69 69 68 67 69 69 71 71 70 70 69
65 65 66 67 68 69 69 69 69 69 69 69 69 69 69 69 70 70 70 70 70 70 71 71 71 71 72 71 73 70 67 64 57 56 56 58 65 72 74 72 72 72 72 72 73 73 74 74 74 71 69 67 59 60 64 71 69 69 69 69 69 69 69 69 69 70 69 68 67 69 70 72 73 73 73 73 72 74 71 70 69 69 69 69 69
62 63 63 64 65 67 68 69 69 69 69 69 69 69 70 71 70 70 69 69 70 70 71 71 70 70 71 71 71 68 66 65 63 55 56 59 62 71 73 73 72 72 72 72 71 71 71 70 69 65 62 59 57 57 58 63 69 68 69 69 69 68 68 67 69 69 67 67 67 68 70 72 72 72 71 71 72 73 72 73 72 70 69 69 69
61 63 62 62 63 64 67 67 67 67 69 69 69 69 70 70 70 70 69 69 69 68 68 68 69 70 71 70 67 66 65 64 63 55 54 59 64 68 69 69 71 72 72 72 72 71 71 70 68 63 58 57 56 55 54 57 63 68 68 69 69 67 66 67 68 69 67 68 68 68 70 71 71 70 70 70 70 70 72 72 72 72 71 69 69
60 60 60 60 60 61 62 66 67 67 68 69 68 67 67 70 70 69 69 69 68 67 68 68 67 66 67 67 67 67 67 66 65 59 54 53 59 64 69 69 70 71 71 70 70 70 71 70 68 65 58 58 56 54 53 55 59 66 66 60 57 60 65 68 67 67 67 68 68 69 70 69 67 67 68 68 68 69 71 72 70 70 69 69 68
59 60 61 59 60 61 61 62 64 64 64 65 64 62 61 60 61 68 69 68 67 67 66 65 65 65 64 65 65 65 65 66 65 65 58 54 54 57 60 65 64 71 70 70 70 70 71 71 71 67 56 55 52 52 53 54 59 62 57 55 57 59 65 65 66 66 67 67 67 67 67 66 65 65 66 66 65 66 68 71 68 68 68 68 69
57 57 60 61 59 60 59 59 59 60 61 62 61 59 60 60 58 57 61 68 67 66 65 63 62 62 62 63 64 65 66 66 65 64 62 56 54 54 56 58 63 68 69 67 65 64 64 66 66 57 53 49 49 51 53 57 61 58 55 56 58 63 65 65 66 66 64 62 62 62 63 65 64 64 65 65 64 65 68 68 66 65 65 66 66
57 57 57 57 59 57 57 56 57 58 59 58 56 56 57 57 55 55 57 59 66 65 63 63 62 62 63 64 63 62 62 62 61 62 62 62 57 55 58 59 59 60 65 65 64 63 59 56 54 52 52 51 52 52 53 57 54 52 53 55 66 65 66 65 62 61 60 60 60 60 59 61 62 62 63 62 62 61 63 62 61 60 62 65 64
59 58 58 59 58 57 55 55 54 53 55 57 58 56 56 57 57 58 57 57 60 66 64 63 63 63 63 62 58 58 58 59 58 60 60 61 61 58 57 60 65 64 63 60 59 58 57 57 58 57 58 58 62 65 66 67 65 64 62 62 65 66 61 59 59 59 58 58 59 58 58 59 59 60 61 60 59 59 61 59 57 58 59 61 58
59 58 57 58 58 58 55 55 55 55 53 54 55 56 54 56 55 58 58 58 59 62 66 64 63 64 60 58 58 57 56 55 55 55 56 56 57 58 58 58 61 61 60 59 59 59 62 63 62 59 59 61 62 64 63 65 65 63 64 64 61 59 60 59 58 58 59 57 58 57 57 58 59 59 58 58 58 59 60 60 57 57 58 58 56
54 54 56 58 60 58 59 60 56 53 54 53 53 54 52 52 54 54 56 56 58 59 61 61 62 59 57 57 56 56 55 55 54 53 54 55 55 56 57 57 57 58 57 56 57 59 61 63 62 64 65 65 66 66 66 65 61 60 59 60 62 64 63 63 62 58 57 57 57 58 58 57 57 58 58 57 58 58 59 59 58 57 57 56 52
58 54 55 56 58 59 59 56 53 52 52 53 53 53 55 54 54 55 55 53 53 56 60 59 59 57 56 56 55 54 55 54 55 50 52 48 50 54 54 54 55 56 56 51 57 60 60 61 60 59 61 62 63 64 62 59 59 59 59 58 58 58 57 56 55 55 56 56 56 57 57 56 56 57 58 56 58 57 57 56 56 56 55 54 53
56 55 56 57 57 58 58 57 55 53 50 50 51 52 53 48 51 56 54 52 48 44 47 56 57 57 52 51 53 54 53 53 47 44 41 41 42 43 43 41 42 49 50 50 56 58 59 59 58 58 61 63 63 63 60 57 57 57 58 59 57 56 55 55 55 55 56 56 56 56 56 55 54 56 56 57 56 55 55 56 54 54 53 52 51
56 56 57 58 58 58 58 57 58 58 55 53 53 53 50 51 44 45 51 50 45 41 41 44 48 51 57 54 51 47 46 44 40 40 40 40 40 40 40 40 40 41 44 54 59 60 59 57 56 56 57 57 58 58 58 57 57 57 56 56 56 56 56 54 54 55 55 55 55 55 55 55 54 55 55 56 55 53 53 53 53 53 52 52 51
53 54 55 57 59 59 58 58 59 58 58 58 57 56 54 52 51 46 43 46 45 42 41 41 42 44 47 50 54 51 49 43 40 40 39 40 40 40 40 40 40 41 43 47 58 58 59 57 55 55 56 56 57 58 57 56 56 56 55 55 55 56 55 55 54 55 54 54 54 54 54 54 54 54 54 54 53 52 52 51 51 52 51 51 52
53 53 54 55 55 58 57 57 57 56 57 57 57 58 57 56 52 51 51 42 42 42 42 42 41 41 41 40 41 43 43 42 41 40 39 39 39 39 40 42 42 40 47 56 57 58 58 58 56 55 55 55 55 55 55 56 56 56 56 56 56 55 55 55 55 54 54 54 53 52 53 53 53 53 53 53 52 50 51 50 50 51 50 50 51
53 53 52 52 53 52 53 53 53 53 54 55 57 57 57 58 56 53 51 51 52 49 45 42 42 45 46 45 44 42 42 41 41 40 40 40 39 41 42 46 40 42 50 57 56 55 55 56 57 57 57 57 56 56 56 56 56 55 55 55 55 54 54 54 53 53 53 52 52 52 52 52 52 51 51 51 51 51 50 50 50 50 49 50 49
52 56 56 56 50 51 51 52 51 51 53 54 53 56 57 58 60 59 56 53 53 51 51 53 49 43 49 48 46 43 41 41 41 41 41 41 44 46 49 55 54 54 54 54 54 54 54 54 54 55 56 56 57 57 56 56 56 55 54 54 54 54 54 53 53 52 51 51 51 52 52 51 51 51 51 50 50 49 50 50 49 49 48 49 49
51 49 50 52 51 51 51 51 52 50 50 51 54 56 58 59 58 60 57 58 56 54 54 54 54 52 50 48 46 42 42 42 43 44 45 46 48 49 54 53 53 53 53 53 53 54 53 53 53 52 52 53 54 54 54 55 55 54 54 54 54 54 53 53 53 52 52 51 51 51 50 49 50 50 49 49 48 48 48 48 47 47 47 46 46
50 49 49 49 49 50 51 52 52 53 56 54 54 54 57 57 57 57 58 59 57 54 52 53 53 52 51 52 54 45 42 43 45 46 45 46 48 53 53 53 53 53 53 52 52 52 51 51 51 51 51 51 51 51 52 52 52 53 54 53 52 52 52 51 51 52 49 49 48 48 47 47 47 47 46 45 45 44 45 45 44 45 45 45 45
49 48 47 48 50 50 50 51 54 56 55 55 55 55 56 55 54 57 58 57 56 54 53 53 50 48 47 48 52 52 52 47 47 48 48 47 50 52 52 53 53 52 52 52 51 50 50 50 50 50 50 50 49 49 49 49 50 50 50 50 51 51 51 51 50 48 48 46 46 45 46 45 45 45 46 44 43 43 43 45 43 42 42 44 43
49 53 52 50 53 50 50 54 54 53 53 53 53 56 55 54 54 54 54 55 53 52 50 48 48 48 47 48 46 50 50 50 51 52 52 52 52 51 51 51 51 51 51 51 51 50 49 49 50 50 50 50 50 49 49 49 49 49 49 48 47 47 47 47 46 46 46 45 44 44 44 44 44 44 45 44 43 42 42 42 42 42 40 40 41
51 51 52 52 53 52 51 51 52 54 54 52 52 53 54 53 52 53 52 51 49 49 48 48 47 47 48 48 48 48 50 52 52 52 51 51 50 50 50 49 49 49 49 49 50 50 49 49 49 49 48 48 48 48 48 49 49 49 48 47 46 45 45 45 44 43 43 43 42 42 42 43 43 43 43 44 44 42 41 41 41 41 41 41 42
48 48 52 53 53 50 50 52 53 51 51 52 51 51 52 53 53 54 53 52 50 49 49 47 46 45 46 46 46 47 49 49 49 51 51 51 50 49 49 49 49 48 48 49 48 49 48 48 48 47 47 48 48 47 47 46 46 45 46 46 45 44 41 40 40 40 40 41 41 41 41 41 41 40 41 43 42 40 41 41 40 39 41 41 41
49 49 52 52 52 51 52 52 54 50 53 53 49 50 52 52 51 52 53 51 49 48 47 46 45 46 45 44 43 44 48 49 49 49 48 48 48 48 49 48 47 47 47 46 47 47 47 47 47 47 46 47 47 46 45 44 44 43 43 43 42 40 38 37 38 38 39 39 40 40 40 40 40 40 40 41 39 39 39 39 39 40 40 40 41
54 51 52 53 51 52 51 53 52 50 51 50 51 52 51 50 49 51 52 52 50 48 47 47 48 47 46 45 46 46 47 48 49 48 47 47 46 47 46 46 47 47 47 47 46 46 46 46 46 46 45 43 42 41 40 41 41 42 41 40 38 37 36 36 36 37 38 39 39 39 39 40 39 37 38 39 39 40 39 39 40 40 41 40 41
53 54 53 53 52 53 54 51 52 51 49 51 51 51 51 50 49 48 47 47 48 48 47 48 47 46 45 44 45 46 46 46 46 46 46 47 45 45 44 44 44 44 45 47 47 46 46 45 45 43 41 40 39 39 38 38 38 39 40 40 39 38 36 36 37 37 38 38 38 37 36 38 37 37 38 39 39 40 41 41 41 41 41 41 41
53 53 53 53 53 50 50 52 51 50 52 51 49 48 48 48 48 47 47 46 49 46 47 48 48 46 46 44 45 46 46 46 47 46 45 44 44 44 43 43 43 43 43 43 45 47 46 45 44 41 39 38 38 37 37 37 38 37 38 38 36 36 36 36 37 38 38 38 36 35 36 38 36 36 37 38 41 40 40 40 40 41 41 41 41
52 53 52 52 52 50 50 49 53 50 48 47 47 46 47 47 47 48 47 46 46 45 45 46 45 46 46 44 45 46 45 45 45 46 45 44 43 43 42 42 41 41 41 42 43 44 45 45 44 40 38 37 37 36 36 37 37 37 37 37 37 37 37 37 38 37 37 38 37 37 37 37 37 37 39 39 38 39 38 40 40 41 41 41 41
52 52 50 52 51 50 50 49 49 47 47 47 47 46 44 44 45 47 48 47 45 46 44 43 43 43 44 44 44 44 45 45 45 44 43 42 42 41 41 41 40 40 40 40 42 42 43 42 43 40 38 37 37 36 36 36 36 36 38 36 37 37 37 37 37 38 37 38 38 36 36 37 37 38 37 38 39 39 40 40 40 40 40 40 41
49 51 51 51 51 50 51 50 50 50 47 47 46 47 47 46 46 46 45 46 46 44 43 43 42 43 44 43 44 43 43 43 43 43 41 40 40 41 41 40 40 39 40 40 41 42 42 42 42 41 38 37 37 36 36 35 36 36 37 38 39 39 39 37 37 37 37 37 37 37 37 36 36 36 37 38 38 39 40 39 40 40 41 42 42
51 50 51 50 50 50 50 49 50 46 46 48 46 45 46 44 44 44 44 43 42 42 40 40 40 41 42 41 42 42 43 44 40 39 39 40 40 40 40 41 41 40 40 39 40 40 40 40 42 40 39 37 37 36 36 36 35 36 36 37 37 37 37 37 38 37 38 38 37 36 36 36 36 37 38 38 39 39 39 39 40 41 42 43 44
51 52 52 50 50 49 50 48 47 46 47 46 45 44 45 45 43 43 42 41 41 41 40 41 41 40 41 41 42 41 41 40 39 39 39 38 39 39 39 40 39 39 39 39 39 40 39 39 40 40 39 39 38 37 37 36 36 36 37 37 36 35 35 36 37 38 37 36 36 36 36 36 37 37 37 37 37 38 38 40 41 43 43 42 41
50 51 50 51 49 46 45 43 42 43 45 42 42 41 41 40 41 42 41 40 40 40 41 39 40 41 41 41 44 40 39 38 38 38 38 38 39 39 39 39 40 38 38 39 39 39 38 39 39 40 39 39 38 37 37 36 37 37 37 36 34 33 34 35 35 34 36 37 35 36 37 38 38 37 38 38 38 38 41 42 42 42 41 41 42